星链-30974 (STARLINK-30974 )

导读 | 豆包AI

STARLINK-30974是美国太空探索技术公司(SpaceX)星链(Starlink)互联网星座的组网卫星,于2023年12月3日发射入轨,属于星链低轨宽带互联网星座的组成部分。星链项目旨在为全球提供覆盖偏远地区、高速稳定的卫星互联网服务,该卫星的发射进一步扩充了星链星座的在轨规模与服务覆盖能力。

Basic Information
目录编号:
58479
目录名称:
STARLINK-30974
国际标识:
2023-186G
轨道中心:
EARTH
卫星名称:
星链-30974
卫星全名:
星链-30974 (STARLINK-30974 )
卫星状态:
已陨落 最后检测时间 2024-11-07
发射日期:
2023-12-03 UTC
国别 :
美国 (US)
星等 :
--
Orbit Information
数据来源 国际轨道数据
星历时间: 2024-11-07T04:26:47+0800
轨道信息已过期565天
半长轴: 6598.631km
偏心率: 0.0020002
轨道倾角: 42.985°
近地点辐角 18.343°
升交点赤经 36.649°
平近点角 58.579°
近地点: 207.297km
远地点: 233.695km
周期: 88.908分钟
每日圈数: 16.196531
Detailed Information
固有亮度:
5
最大亮度:
0.3
卫星平台:
Starlink v2.0 mini
覆盖范围:
全球
运营商:
太空探索技术公司
运营商所在国:
美国
制造商(研发单位):
太空探索技术公司
制造商所在国:
美国
使用方式:
暂无
Satellite Introduction
星链(Starlink)计划是由太空探索技术公司(SpaceX)提出的一个巨型低轨卫星互联网星座项目,计划在2019年至2024年间在太空搭建由约1.2万颗卫星组成的“星链”网络,其中1584颗将部署在地球上空550千米处的近地轨道,并从2020年开始工作。该卫星仍在工作。